Home   Weather   Patna   Past weeks
Flag for India

Past Weather in Patna, Bihar, India — Yesterday and Last 2 Weeks

Now
54 °F

Fog.


Feels Like: 54 °F
Forecast: 51 / 72 °F
Wind: No wind

Location: Patna Airport

Current Time: Dec 15, 2018 at 7:47:14 am

Latest Report: Dec 15, 2018 at 5:30 am


Visibility: 1 mi

Pressure: 30.07 "Hg

Humidity: 88%

Dew Point: 50 °F

Location of PatnaLocation

Past Weather in Patna — Graph

°F

Patna Temperature Yesterday

Maximum temperature yesterday: 77 °F (at 1:30 pm)
Minimum temperature yesterday: 54 °F (at 5:00 am)
Average temperature yesterday: 65 °F

High & Low Weather Summary for the Past Weeks

 TemperatureHumidityPressure
High81 °F (Nov 30, 1:00 pm)100% (Dec 1, 7:01 am)30.12 "Hg (Dec 1, 7:01 am)
Low48 °F (Dec 8, 5:30 am)30% (Dec 2, 2:00 pm)29.83 "Hg (Dec 6, 4:00 pm)
Average64 °F69%29.97 "Hg
* Reported Nov 30 5:30 am — Dec 15 5:30 am, Patna. Weather by CustomWeather, © 2018

Note: Actual official high and low records may vary slightly from our data, if they occured in-between our weather recording intervals... More about our weather records

Advertising

Patna Weather History for the Previous 24 Hours

Scroll right to see more
 ConditionsComfort  
Time TempWeatherWind HumidityBarometerVisibility
5:30 am
Sat, Dec 15
54 °FFog.No wind88%30.07 "Hg1 mi
5:14 am54 °FFog.3 mph88%30.07 "Hg1 mi
4:30 am54 °FFog.No wind82%30.07 "Hg1 mi
4:00 am54 °FFog.3 mph88%30.07 "Hg1 mi
3:30 am55 °FFog.3 mph82%30.07 "Hg1 mi
3:00 am55 °FFog.3 mph77%30.07 "Hg1 mi
2:30 am55 °FFog.2 mph77%30.07 "Hg1 mi
2:00 am54 °FFog.2 mph88%30.07 "Hg1 mi
1:30 am55 °FFog.3 mph88%30.07 "Hg1 mi
1:00 am55 °FFog.2 mph88%30.07 "Hg1 mi
12:30 am55 °FHaze.No wind82%30.09 "Hg1 mi
12:00 am55 °FHaze.No wind88%30.09 "Hg1 mi
11:30 pm
Fri, Dec 14
55 °FHaze.No wind88%30.09 "Hg1 mi
11:00 pm55 °FHaze.No wind88%30.09 "Hg1 mi
10:30 pm55 °FHaze.No wind88%30.12 "Hg1 mi
10:00 pm57 °FHaze.No wind82%30.12 "Hg1 mi
9:30 pm59 °FHaze.No wind82%30.12 "Hg1 mi
9:00 pm61 °FHaze.No wind77%30.12 "Hg1 mi
8:00 pm64 °FHaze.No wind68%30.09 "Hg1 mi
7:30 pm64 °FHaze.No wind68%30.09 "Hg1 mi
7:00 pm68 °FHaze.No wind64%30.07 "Hg1 mi
6:30 pm70 °FHaze.2 mph57%30.07 "Hg2 mi
6:00 pm70 °FHaze.2 mph60%30.07 "Hg2 mi
5:30 pm72 °FHaze.2 mph57%30.07 "Hg2 mi
5:00 pm73 °FHaze.2 mph53%30.04 "Hg2 mi
4:30 pm75 °FHaze.3 mph44%30.04 "Hg2 mi
4:00 pm75 °FHaze.6 mph47%30.04 "Hg2 mi
3:30 pm77 °FHaze.8 mph44%30.04 "Hg2 mi
3:15 pm77 °FHaze.7 mph44%30.04 "Hg3 mi
2:30 pm77 °FHaze.6 mph44%30.04 "Hg2 mi
2:00 pm77 °FHaze.8 mph44%30.04 "Hg2 mi
1:30 pm77 °FHaze.6 mph47%30.04 "Hg1 mi
1:00 pm75 °FHaze.5 mph50%30.07 "Hg1 mi
12:30 pm75 °FHaze.5 mph54%30.07 "Hg1 mi
12:00 pm73 °FHaze.3 mph57%30.09 "Hg1 mi
11:30 am72 °FHaze.No wind57%30.09 "Hg1 mi
11:00 am72 °FHaze.3 mph61%30.12 "Hg1 mi
10:30 am70 °FHaze.No wind64%30.12 "Hg1 mi
10:00 am68 °FFog.3 mph64%30.12 "Hg1 mi
9:30 am64 °FFog.5 mph73%30.12 "Hg1 mi
9:00 am63 °FFog.5 mph83%30.12 "Hg1 mi
8:30 am61 °FFog.No wind83%30.09 "Hg1 mi
8:00 am59 °FFog.No wind88%30.09 "Hg1 mi
7:30 am57 °FFog.No wind88%30.09 "Hg1 mi
7:00 am55 °FFog.2 mph94%30.09 "Hg1 mi
Weather by CustomWeather, © 2018

See weather overview